Weather History for KGLY - June, 2013

Change the Weather History Date:

Sunday, June 30, 2013

  Actual Average (KDMO) Record (KDMO)
Temperature  
Mean Temperature 71 °F 78 °F  
Max Temperature 80 °F 88 °F - ()
Min Temperature 62 °F 69 °F - ()
Degree Days  
Heating Degree Days 0 0  
Month to date heating degree days 4  
Since 1 June heating degree days 6  
Since 1 July heating degree days 4571  
Cooling Degree Days 6 13  
Month to date cooling degree days 304  
Year to date cooling degree days 443  
Since 1 June cooling degree days 304  
Growing Degree Days 21 (Base 50)    
Moisture  
Dew Point 61 °F    
Average Humidity 74    
Maximum Humidity 100    
Minimum Humidity 45    
Precipitation  
Precipitation 0.00 in 0.13 in - ()
Month to date precipitation 5.09  
Year to date precipitation 20.24  
Sea Level Pressure  
Sea Level Pressure 29.94 in    
Wind  
Wind Speed 7 mph (North)    
Max Wind Speed 18 mph    
Max Gust Speed 22 mph    
T = Trace of Precipitation, MM = Missing Value Source: NWS Daily Summary

Daily Weather History Graph

Daily Weather History Graph

Search for Another Location

Airport or City:

Trip Planner

Search our weather history database for the weather conditions in past years. The results will help you decide how hot, cold, wet, or windy it might be!

Date:

Astronomy

Jun. 30, 2013 Rise Set
Actual Time 5:54 AM CDT 8:42 PM CDT
Civil Twilight 5:22 AM CDT 9:13 PM CDT
Nautical Twilight 4:43 AM CDT 9:53 PM CDT
Astronomical Twilight 3:58 AM CDT 10:38 PM CDT
Moon 12:49 AM CDT (6/30) 2:01 PM CDT (6/30)
Length of Visible Light 15h 51m
Length of Day
14h 47m
Last Quarter, 45% of the Moon is Illuminated
Jun 30
Last Quarter
Jul 8
New
Jul 15
First Quarter
Jul 22
Full
Jul 29
Last Quarter

Hourly Weather History & Observations

Time (CDT) Temp. Heat Index Dew Point Humidity Pressure Visibility Wind Dir Wind Speed Gust Speed Precip Events Conditions
12:15 AM 64.4 °F - 62.6 °F 94% 29.87 in - Calm Calm - N/A   Unknown
12:35 AM 64.4 °F - 62.6 °F 94% 29.87 in - NNW 4.6 mph - N/A   Unknown
12:55 AM 64.4 °F - 62.6 °F 94% 29.87 in - Calm Calm - N/A   Unknown
1:15 AM 64.4 °F - 62.6 °F 94% 29.87 in - NNW 5.8 mph - N/A   Unknown
1:35 AM 64.4 °F - 62.6 °F 94% 29.88 in - NNW 5.8 mph - N/A   Unknown
1:55 AM 64.4 °F - 62.6 °F 94% 29.88 in - Calm Calm - N/A   Unknown
2:15 AM 64.4 °F - 62.6 °F 94% 29.88 in - Calm Calm - N/A   Unknown
2:35 AM 64.4 °F - 62.6 °F 94% 29.88 in - NW 3.5 mph - N/A   Unknown
2:55 AM 64.4 °F - 62.6 °F 94% 29.88 in - Calm Calm - N/A   Unknown
3:15 AM 62.6 °F - 62.6 °F 100% 29.88 in - Calm Calm - N/A   Unknown
3:35 AM 62.6 °F - 62.6 °F 100% 29.87 in - NNW 4.6 mph - N/A   Unknown
3:55 AM 62.6 °F - 62.6 °F 100% 29.87 in - NNW 5.8 mph - N/A   Unknown
4:15 AM 62.6 °F - 60.8 °F 94% 29.87 in - NNW 6.9 mph - N/A   Unknown
4:35 AM 62.6 °F - 60.8 °F 94% 29.88 in - NNW 6.9 mph - N/A   Unknown
4:55 AM 62.6 °F - 60.8 °F 94% 29.89 in - NNW 6.9 mph - N/A   Unknown
5:15 AM 62.6 °F - 60.8 °F 94% 29.90 in - NNW 8.1 mph - N/A   Unknown
5:35 AM 62.6 °F - 60.8 °F 94% 29.90 in - North 6.9 mph - N/A   Unknown
5:55 AM 62.6 °F - 60.8 °F 94% 29.91 in - North 8.1 mph - N/A   Mostly Cloudy
6:15 AM 62.6 °F - 60.8 °F 94% 29.92 in - NNW 8.1 mph - N/A   Unknown
6:35 AM 62.6 °F - 60.8 °F 94% 29.92 in - NNW 9.2 mph - N/A   Unknown
6:55 AM 64.4 °F - 60.8 °F 88% 29.93 in - NNW 8.1 mph - N/A   Mostly Cloudy
7:15 AM 64.4 °F - 60.8 °F 88% 29.93 in - NNW 8.1 mph - N/A   Unknown
7:35 AM 64.4 °F - 60.8 °F 88% 29.94 in - North 11.5 mph - N/A   Unknown
7:55 AM 66.2 °F - 60.8 °F 83% 29.95 in - North 11.5 mph - N/A   Clear
8:15 AM 64.4 °F - 60.8 °F 88% 29.95 in - North 9.2 mph - N/A   Unknown
8:35 AM 68.0 °F - 60.8 °F 78% 29.95 in - North 10.4 mph - N/A   Clear
8:55 AM 69.8 °F - 60.8 °F 73% 29.95 in - North 12.7 mph 17.3 mph N/A   Clear
9:15 AM 69.8 °F - 62.6 °F 78% 29.95 in - North 9.2 mph - N/A   Clear
9:35 AM 71.6 °F - 62.6 °F 73% 29.95 in - North 10.4 mph - N/A   Clear
9:55 AM 71.6 °F - 62.6 °F 73% 29.96 in - North 10.4 mph - N/A   Partly Cloudy
10:15 AM 73.4 °F - 62.6 °F 69% 29.95 in - North 8.1 mph - N/A   Partly Cloudy
10:35 AM 73.4 °F - 60.8 °F 65% 29.96 in - North 11.5 mph - N/A   Scattered Clouds
10:55 AM 73.4 °F - 60.8 °F 65% 29.96 in - North 11.5 mph - N/A   Scattered Clouds
11:15 AM 75.2 °F - 60.8 °F 61% 29.96 in - North 10.4 mph - N/A   Partly Cloudy
11:35 AM 75.2 °F - 60.8 °F 61% 29.96 in - North 13.8 mph - N/A   Mostly Cloudy
11:55 AM 77.0 °F - 60.8 °F 57% 29.96 in - North 10.4 mph 20.7 mph N/A   Scattered Clouds
12:15 PM 75.2 °F - 60.8 °F 61% 29.96 in - North 15.0 mph 19.6 mph N/A   Mostly Cloudy
12:35 PM 75.2 °F - 60.8 °F 61% 29.95 in - NNE 17.3 mph - N/A   Mostly Cloudy
12:55 PM 77.0 °F - 60.8 °F 57% 29.95 in - North 16.1 mph - N/A   Scattered Clouds
1:15 PM 78.8 °F - 60.8 °F 54% 29.95 in - North 13.8 mph 19.6 mph N/A   Scattered Clouds
1:35 PM 77.0 °F - 60.8 °F 57% 29.95 in - North 10.4 mph - N/A   Scattered Clouds
1:55 PM 77.0 °F - 60.8 °F 57% 29.95 in - North 9.2 mph - N/A   Scattered Clouds
2:15 PM 75.2 °F - 60.8 °F 61% 29.95 in - North 10.4 mph - N/A   Mostly Cloudy
2:35 PM 75.2 °F - 60.8 °F 61% 29.95 in - North 11.5 mph - N/A   Overcast
2:55 PM 77.0 °F - 59.0 °F 54% 29.95 in - North 11.5 mph - N/A   Mostly Cloudy
3:15 PM 78.8 °F - 57.2 °F 47% 29.95 in - NNW 12.7 mph - N/A   Scattered Clouds
3:35 PM 80.6 °F 80.8 °F 57.2 °F 45% 29.94 in - North 16.1 mph 20.7 mph N/A   Clear
3:55 PM 80.6 °F 80.8 °F 57.2 °F 45% 29.94 in - NNE 15.0 mph 21.9 mph N/A   Partly Cloudy
4:15 PM 78.8 °F - 57.2 °F 47% 29.95 in - North 18.4 mph - N/A   Mostly Cloudy
4:35 PM 75.2 °F - 60.8 °F 61% 29.95 in - NNE 12.7 mph - N/A   Mostly Cloudy
4:55 PM 78.8 °F - 59.0 °F 51% 29.95 in - NE 11.5 mph - N/A   Mostly Cloudy
5:15 PM 78.8 °F - 59.0 °F 51% 29.95 in - NNE 11.5 mph 19.6 mph N/A   Scattered Clouds
5:35 PM 77.0 °F - 59.0 °F 54% 29.95 in - NNE 12.7 mph - N/A   Scattered Clouds
5:55 PM 75.2 °F - 60.8 °F 61% 29.95 in - NNE 9.2 mph 19.6 mph N/A   Mostly Cloudy
6:15 PM 77.0 °F - 60.8 °F 57% 29.95 in - North 10.4 mph - N/A   Scattered Clouds
6:35 PM 75.2 °F - 57.2 °F 53% 29.95 in - North 11.5 mph - N/A   Partly Cloudy
6:55 PM 77.0 °F - 60.8 °F 57% 29.95 in - NNE 11.5 mph - N/A   Partly Cloudy
7:15 PM 75.2 °F - 60.8 °F 61% 29.96 in - NNE 9.2 mph - N/A   Partly Cloudy
7:35 PM 73.4 °F - 60.8 °F 65% 29.96 in - NNE 10.4 mph - N/A   Clear
7:55 PM 73.4 °F - 60.8 °F 65% 29.96 in - NNE 8.1 mph - N/A   Partly Cloudy
8:15 PM 73.4 °F - 60.8 °F 65% 29.97 in - NNE 9.2 mph - N/A   Partly Cloudy
8:35 PM 73.4 °F - 60.8 °F 65% 29.98 in - NNE 9.2 mph - N/A   Partly Cloudy
8:55 PM 71.6 °F - 60.8 °F 69% 29.98 in - NNE 6.9 mph - N/A   Mostly Cloudy
9:15 PM 71.6 °F - 60.8 °F 69% 29.98 in - NNE 5.8 mph - N/A   Mostly Cloudy
9:35 PM 69.8 °F - 60.8 °F 73% 29.99 in - NNE 4.6 mph - N/A   Partly Cloudy
9:55 PM 69.8 °F - 60.8 °F 73% 30.00 in - Calm Calm - N/A   Partly Cloudy
10:15 PM 68.0 °F - 60.8 °F 78% 30.00 in - Calm Calm - N/A   Scattered Clouds
10:35 PM 66.2 °F - 60.8 °F 83% 30.01 in - Calm Calm - N/A   Mostly Cloudy
10:55 PM 66.2 °F - 60.8 °F 83% 30.01 in - NNW 4.6 mph - N/A   Mostly Cloudy
11:15 PM 66.2 °F - 60.8 °F 83% 30.01 in - NNW 5.8 mph - N/A   Mostly Cloudy
11:35 PM 68.0 °F - 60.8 °F 78% 30.01 in - North 5.8 mph - N/A   Overcast
11:55 PM 69.8 °F - 60.8 °F 73% 30.01 in - North 6.9 mph - N/A   Overcast